Location: Newark
(42.8481°N, 0.4872°E)
Time: 17:25:26
(UTC+00:00)

Vanguard 2 - Pass Details

Date: 03 November 2020
Orbit: 554 x 2937 km, 32.9° (Epoch: 27 November)

Event Time Altitude Azimuth Distance (km) Brightness Sun altitude
Rises 23:44:16 0° 276° (W) 6,173 12.2 -62.3°
Enters shadow 23:47:18 - 271° (W) 5,622 11.9 -62.3°
Reaches altitude 10° 23:48:37 10° 268° (W) 5,399 - -62.2°
Maximum altitude 00:02:42 34° 212° (SSW) 4,086 - -61.9°
Drops below altitude 10° 00:17:04 10° 156° (SSE) 5,467 - -61.3°
Sets 00:21:33 0° 148° (SSE) 6,253 - -61.0°
